Location: Charbonni�res
(45.9952°N, 2.9982°E)
Time: 18:13:37
(UTC+00:00)

Cosmos 1328 Rocket - Pass Details

Date: 29 November 2020
Orbit: 602 x 626 km, 82.5° (Epoch: 17 January)

Event Time Altitude Azimuth Distance (km) Brightness Sun altitude
Exits shadow 04:35:40 74° 72° (ENE) 654 3.7 -25.7°
Maximum altitude 04:35:43 74° 80° (E) 654 3.7 -25.7°
Drops below altitude 10° 04:40:09 10° 166° (SSE) 1,994 6.4 -24.9°
Sets 04:42:22 0° 168° (SSE) 2,897 7.2 -24.5°
